Temp
32 33 33 34 35 35 35 35 37 36 36 36 37 38 39 41 42 42 43 44 47 49 50 53 51 50 49 48 49 46 49 48 45 33 34 33 32 32 32 33 34 33 36
31 31 32 33 33 32 33 33 35 34 35 35 37 37 38 40 41 41 40 42 44 45 45 44 42 45 43 43 44 43 46 40 37 33 32 32 33 32 32 32 31 32 32
30 30 30 31 31 30 31 32 32 32 34 35 36 35 35 36 36 37 38 38 41 43 42 44 40 42 39 38 37 35 35 34 33 32 28 31 31 29 29 28 27 27 29
29 28 28 28 29 29 30 31 31 32 32 33 35 35 35 35 35 35 35 37 38 38 38 38 38 40 38 36 36 35 35 34 34 33 30 29 28 28 28 24 23 24 24
26 26 25 27 29 29 29 30 32 32 32 32 33 33 34 35 35 35 36 36 35 34 35 35 36 36 37 38 37 35 35 34 32 30 27 26 24 24 24 25 22 22 21
24 23 24 25 27 28 29 30 30 31 32 33 33 32 33 33 38 39 37 35 35 34 33 34 34 35 37 38 38 38 38 33 30 29 27 25 24 26 24 24 21 20 18
23 24 24 25 25 26 28 28 29 29 31 31 32 33 33 34 38 38 36 34 34 34 33 33 33 33 34 34 36 36 35 36 35 31 27 26 24 25 25 22 22 21 19
25 24 25 25 25 26 27 27 28 29 29 30 30 31 32 33 36 35 34 32 31 31 32 32 32 31 32 30 29 27 27 29 30 31 30 27 27 27 27 26 23 16 16
25 24 25 26 25 24 25 26 27 28 28 29 30 30 30 31 34 34 31 30 29 28 29 30 30 30 32 32 28 27 26 27 31 31 31 32 32 31 27 22 17 16 7
24 26 26 25 26 25 25 26 28 28 28 28 29 29 30 30 33 33 31 29 27 28 29 30 31 30 31 31 27 26 24 26 27 27 28 29 29 29 30 23 20 11 5
20 22 26 25 25 26 27 27 27 28 28 27 27 27 29 30 31 32 31 28 27 26 26 27 28 31 31 31 30 26 24 24 23 19 18 17 16 15 15 16 15 12 0
20 22 22 23 26 26 26 27 27 27 27 26 26 25 26 28 31 32 31 30 29 26 26 28 30 33 33 32 29 29 26 21 17 16 15 12 11 11 10 9 8 8 9
18 17 20 23 25 26 25 25 25 25 26 24 24 23 23 24 26 32 33 33 32 28 29 32 33 33 31 29 29 25 17 15 13 12 10 8 7 7 4 1 2 4 5
13 16 19 20 22 23 25 24 24 23 22 23 22 21 21 21 22 22 24 24 27 25 26 24 27 27 24 17 14 13 11 9 10 9 3 1 1 0 0 2 1 0 -1
13 15 16 17 18 20 22 22 22 21 23 20 16 16 16 17 22 26 23 20 19 20 13 11 10 8 10 8 5 4 4 6 5 -2 -1 -1 -1 -0 0 -1 -1 -6 -6
14 14 12 13 12 14 15 18 32 31 31 32 31 24 20 29 31 31 31 30 28 25 8 3 4 5 7 3 3 -0 -2 -1 -2 -2 -5 -3 -2 -1 -2 -5 -5 -7 -6
11 12 10 12 11 11 11 12 16 23 29 32 32 31 31 31 31 31 31 30 28 20 3 -1 1 2 0 -1 -0 -2 -1 -3 -7 -3 -3 -3 -4 -6 -5 -5 -5 -5 -7
11 13 13 13 11 8 9 8 15 10 8 9 20 27 30 31 31 30 30 23 19 8 -2 -3 -2 -3 -4 -2 -3 -4 -6 -8 -6 -4 -5 -6 -5 -6 -9 -8 -4 -7 -8
12 12 10 9 8 9 8 8 6 5 4 2 13 16 11 26 30 31 30 8 5 1 -3 -3 -3 -1 -1 -2 -1 -2 -3 -3 -5 -7 -6 -5 -5 -7 -7 -4 -2 -1 -4
8 11 10 7 6 6 6 6 5 4 2 1 9 11 2 7 9 6 3 1 1 2 1 3 1 -1 -1 -0 -1 -2 -4 -6 -4 -4 -3 -2 -1 -1 -0 0 1 -0 0
13 9 9 5 7 8 6 7 4 2 4 3 5 7 20 16 9 8 7 3 2 2 4 5 4 4 4 2 0 -1 -1 0 -1 2 3 2 4 2 5 6 5 5 5
13 12 8 11 8 6 5 5 5 4 9 18 20 20 27 24 20 19 18 17 16 14 11 10 10 10 9 8 7 6 6 5 5 6 6 7 7 7 7 7 7 6 6
11 7 4 1 5 4 3 4 5 10 15 20 22 22 22 22 22 22 21 20 18 16 8 9 10 7 6 9 9 10 9 7 9 10 9 9 9 8 8 6 6 5 5
13 15 16 15 10 9 10 10 14 19 21 22 23 23 23 23 22 21 19 9 2 -1 -2 1 2 4 2 2 3 6 8 10 10 11 12 10 8 8 7 7 6 6 5
14 17 18 18 16 14 14 16 20 22 23 23 24 23 23 22 14 14 8 -1 -3 -4 -2 -4 -4 -1 2 5 8 9 10 15 11 11 10 8 7 7 7 6 6 5 4
15 19 19 18 18 18 19 21 22 23 23 24 23 20 16 12 10 8 5 -0 -1 -2 -2 -1 2 7 7 6 8 11 12 14 12 12 8 7 6 6 6 5 4 2 0
MSLP
1009.49 1008.52 1007.39 1006.26 1005.24 1004.39 1003.47 1002.31 1001.15 1000.90 1000.96 1000.92 1000.73 1000.66 1000.55 1000.46 1000.30 1000.37 1000.41 1000.38 1000.32 999.70 999.73 999.71 1001.32 1001.74 1002.81 1003.79 1004.28 1004.31 1004.77 1006.33 1007.78 1010.57 1011.74 1012.82 1013.89 1015.13 1016.10 1016.61 1017.29 1017.97 1018.59
1009.33 1008.20 1007.01 1005.89 1004.82 1003.93 1002.77 1001.63 1000.76 999.96 999.76 999.81 999.65 999.66 999.64 999.52 999.61 999.81 999.90 999.90 999.86 999.64 999.57 1000.02 1000.43 1001.03 1002.30 1003.52 1004.40 1005.05 1005.13 1005.92 1007.60 1008.98 1011.05 1012.59 1013.10 1014.52 1015.44 1016.65 1017.80 1018.37 1018.84
1009.13 1008.06 1006.94 1005.75 1004.68 1003.67 1002.51 1001.25 1000.19 999.44 998.73 998.44 998.49 998.65 998.84 998.91 999.00 999.32 999.57 999.49 999.37 999.25 999.12 999.75 999.95 1000.75 1001.96 1003.28 1004.23 1005.10 1005.87 1006.68 1007.74 1008.97 1010.77 1012.04 1013.47 1014.66 1015.80 1016.77 1017.96 1019.11 1019.40
1009.16 1008.14 1006.96 1005.89 1004.77 1003.66 1002.46 1001.15 999.89 998.81 998.14 997.75 997.61 997.62 997.80 998.03 998.22 998.63 998.96 998.95 998.79 998.66 998.77 999.29 1000.06 1000.59 1001.58 1003.11 1003.82 1004.84 1005.88 1007.10 1008.17 1009.42 1010.83 1012.15 1013.61 1015.09 1016.00 1017.04 1018.11 1019.50 1020.01
1009.27 1008.29 1007.31 1006.07 1004.78 1003.66 1002.50 1001.30 1000.02 998.84 998.08 997.59 997.29 997.09 997.03 997.03 997.21 997.50 997.71 997.91 998.23 998.56 999.02 999.32 1000.10 1000.86 1001.73 1002.89 1003.81 1004.78 1005.56 1006.98 1008.20 1009.46 1010.59 1012.18 1013.31 1014.33 1015.47 1016.87 1018.00 1019.38 1020.59
1009.43 1008.58 1007.50 1006.31 1005.19 1004.04 1002.86 1001.65 1000.43 999.53 998.72 998.03 997.54 997.13 996.72 996.51 996.47 996.47 996.76 997.55 998.08 998.47 999.28 1000.02 1000.69 1001.78 1002.68 1003.19 1003.95 1004.90 1005.54 1006.70 1008.30 1009.55 1010.69 1011.54 1012.90 1013.82 1015.08 1016.38 1017.81 1019.67 1021.06
1009.64 1008.81 1007.81 1006.77 1005.75 1004.66 1003.67 1002.52 1001.33 1000.46 999.80 999.13 998.52 998.00 997.53 997.11 996.87 997.27 997.70 998.09 998.72 999.29 999.85 1000.22 1001.79 1002.37 1002.58 1004.06 1004.86 1005.79 1006.70 1007.33 1008.46 1008.93 1010.13 1011.33 1012.52 1013.36 1014.45 1016.21 1017.58 1018.91 1020.08
1009.67 1009.13 1008.26 1007.27 1006.36 1005.41 1004.40 1003.47 1002.55 1001.62 1000.92 1000.43 999.93 999.58 999.15 998.83 998.34 998.60 998.88 999.22 999.68 1000.46 1001.14 1001.68 1002.27 1003.72 1003.17 1004.17 1005.75 1006.32 1008.10 1008.77 1009.40 1009.66 1010.19 1011.31 1012.21 1013.30 1014.60 1015.80 1017.51 1019.60 1020.80
1009.87 1009.37 1008.78 1007.91 1007.12 1006.19 1005.38 1004.58 1003.85 1002.97 1002.05 1001.80 1001.47 1000.96 1000.63 1000.34 999.87 999.57 999.99 1000.98 1001.13 1001.88 1002.40 1003.64 1004.06 1003.13 1004.15 1005.32 1006.74 1008.22 1008.77 1009.83 1010.02 1010.35 1011.00 1011.97 1012.99 1013.69 1014.73 1016.21 1018.31 1019.51 1021.53
1010.60 1009.85 1009.27 1008.51 1007.70 1006.96 1006.25 1005.54 1004.98 1004.35 1003.73 1003.37 1002.69 1002.45 1002.11 1001.59 1001.58 1001.34 1001.56 1002.08 1002.83 1004.12 1004.55 1005.18 1005.25 1004.34 1005.95 1007.16 1007.92 1008.50 1009.03 1010.41 1010.75 1011.32 1011.97 1013.14 1014.24 1015.06 1015.69 1016.65 1018.09 1019.48 1021.04
1011.11 1010.42 1009.68 1009.01 1008.25 1007.64 1007.09 1006.45 1005.89 1005.34 1004.91 1004.62 1004.41 1004.21 1003.71 1003.72 1003.63 1003.41 1003.35 1004.43 1004.92 1005.25 1006.00 1006.37 1006.10 1006.51 1008.06 1008.62 1009.66 1009.84 1010.16 1011.39 1012.29 1013.03 1014.03 1015.05 1016.28 1017.14 1017.43 1018.00 1018.56 1019.11 1020.46
1011.44 1010.79 1010.23 1009.69 1008.97 1008.35 1007.80 1007.31 1006.85 1006.40 1006.14 1006.10 1006.02 1006.25 1006.25 1005.87 1005.62 1005.96 1006.16 1006.50 1006.74 1006.39 1006.65 1007.71 1008.56 1009.18 1009.92 1010.21 1010.52 1011.18 1011.67 1012.43 1013.24 1014.50 1015.61 1016.90 1017.71 1018.55 1019.11 1019.43 1019.91 1019.97 1020.25
1011.72 1011.25 1010.71 1010.27 1009.78 1009.26 1008.85 1008.43 1008.07 1007.82 1007.67 1007.64 1007.59 1007.81 1007.95 1007.93 1007.72 1007.49 1007.77 1007.95 1007.82 1007.92 1008.26 1008.78 1009.66 1010.51 1011.32 1010.99 1011.86 1013.05 1013.04 1013.89 1014.64 1015.84 1017.32 1018.42 1018.64 1019.26 1019.84 1020.28 1020.88 1020.98 1021.33
1012.11 1011.83 1011.34 1010.97 1010.64 1010.21 1009.94 1009.66 1009.38 1009.24 1008.98 1008.84 1008.94 1009.08 1009.14 1009.02 1008.85 1008.84 1008.99 1009.33 1009.66 1009.88 1010.41 1011.11 1011.21 1011.29 1010.99 1012.85 1014.18 1014.50 1014.89 1015.09 1015.47 1017.14 1018.25 1018.84 1019.26 1019.38 1020.31 1020.83 1021.82 1021.74 1022.16
1012.54 1012.32 1012.02 1011.75 1011.51 1011.10 1010.70 1010.38 1010.18 1010.32 1010.20 1010.25 1010.36 1010.36 1010.48 1010.33 1010.31 1010.31 1010.42 1010.81 1011.23 1011.57 1011.64 1012.12 1012.65 1013.68 1015.04 1015.55 1016.00 1016.05 1015.63 1016.05 1016.59 1017.85 1018.64 1019.10 1019.77 1020.09 1020.79 1021.05 1021.74 1022.42 1022.60
1012.73 1012.61 1012.50 1012.29 1011.94 1011.56 1011.21 1010.84 1010.30 1010.32 1010.37 1010.27 1010.24 1010.29 1010.20 1010.06 1010.19 1010.32 1010.65 1011.00 1011.32 1011.72 1012.78 1013.95 1014.64 1015.05 1015.62 1016.08 1016.26 1016.42 1017.09 1017.44 1017.96 1018.28 1019.09 1019.64 1020.05 1020.43 1021.07 1021.57 1021.74 1022.27 1022.68
1012.30 1012.33 1012.37 1012.40 1012.44 1012.39 1012.26 1012.26 1011.84 1011.52 1011.19 1010.91 1010.90 1010.93 1010.94 1010.85 1010.95 1011.04 1011.19 1011.60 1012.43 1013.19 1014.58 1015.40 1015.69 1015.66 1016.15 1016.52 1016.79 1017.19 1017.74 1018.15 1018.38 1018.64 1019.12 1019.68 1020.21 1020.79 1021.16 1021.59 1021.90 1022.16 1022.53
1011.59 1011.42 1011.41 1011.56 1011.99 1012.38 1012.61 1012.85 1012.96 1012.86 1012.62 1012.50 1012.17 1011.82 1011.62 1011.58 1011.77 1012.05 1012.25 1012.84 1013.44 1014.25 1014.80 1015.37 1015.73 1015.97 1016.35 1016.68 1017.05 1017.37 1018.01 1018.35 1018.58 1018.86 1019.28 1019.73 1020.21 1020.69 1021.11 1021.25 1021.49 1021.68 1021.91
1011.62 1011.76 1011.77 1011.91 1011.99 1012.05 1012.20 1012.28 1012.43 1012.76 1013.14 1013.25 1012.97 1012.55 1012.53 1012.32 1012.12 1012.22 1012.54 1013.44 1014.12 1014.83 1015.29 1015.69 1016.04 1016.31 1016.55 1016.80 1016.95 1017.31 1017.72 1018.26 1018.59 1019.13 1019.32 1019.46 1019.65 1019.95 1020.06 1020.28 1020.58 1020.87 1021.13
1011.19 1011.59 1011.82 1012.06 1012.36 1012.64 1012.89 1013.12 1013.39 1013.52 1013.53 1013.40 1013.21 1013.07 1013.00 1012.70 1012.62 1012.78 1013.41 1013.80 1014.12 1014.53 1015.00 1015.40 1015.66 1015.73 1015.92 1016.08 1016.30 1016.65 1017.17 1017.60 1017.83 1018.09 1018.21 1018.39 1018.68 1019.09 1019.21 1019.40 1019.77 1020.02 1020.24
1010.35 1010.72 1011.09 1011.56 1011.86 1012.12 1012.37 1012.78 1013.00 1013.11 1013.16 1013.04 1012.70 1012.64 1012.20 1012.32 1012.37 1012.67 1013.05 1013.38 1013.68 1014.00 1014.32 1014.44 1014.63 1014.84 1014.95 1015.19 1015.57 1015.98 1016.24 1016.38 1016.68 1016.95 1017.13 1017.24 1017.45 1017.89 1017.96 1018.15 1018.47 1018.82 1019.06
1009.52 1010.00 1010.61 1011.00 1011.24 1011.73 1011.95 1012.15 1012.35 1012.49 1012.42 1012.19 1011.81 1011.51 1011.36 1011.73 1012.01 1012.23 1012.40 1012.59 1012.78 1013.00 1013.11 1013.36 1013.61 1013.71 1013.82 1014.05 1014.29 1014.62 1014.90 1015.12 1015.32 1015.56 1015.82 1015.97 1016.22 1016.48 1016.76 1017.08 1017.38 1017.70 1018.07
1008.93 1009.64 1010.27 1010.68 1011.08 1011.45 1011.70 1011.77 1011.88 1011.78 1011.51 1011.28 1011.06 1010.90 1010.85 1011.00 1011.17 1011.38 1011.63 1011.93 1012.32 1012.59 1012.73 1012.94 1013.07 1013.16 1013.06 1012.98 1013.15 1013.53 1013.91 1014.01 1014.01 1014.15 1014.44 1014.78 1015.14 1015.44 1015.77 1016.13 1016.48 1016.88 1017.30
1007.96 1008.63 1009.11 1009.60 1010.12 1010.48 1010.71 1010.96 1010.97 1010.86 1010.81 1010.69 1010.51 1010.38 1010.39 1010.45 1010.65 1011.01 1011.38 1011.67 1011.92 1012.20 1012.55 1012.82 1012.83 1012.73 1012.69 1012.73 1012.81 1012.85 1013.01 1013.10 1013.15 1013.31 1013.61 1014.08 1014.46 1014.81 1015.21 1015.51 1015.80 1016.23 1016.79
1007.07 1007.66 1008.15 1008.61 1009.09 1009.61 1009.96 1009.99 1009.99 1010.02 1010.01 1010.05 1010.03 1010.12 1010.18 1010.28 1010.72 1011.11 1011.59 1012.07 1012.29 1012.24 1012.21 1012.51 1012.32 1012.20 1012.21 1012.30 1012.25 1012.32 1012.40 1012.45 1012.71 1012.97 1013.26 1013.64 1014.04 1014.39 1014.74 1015.09 1015.47 1016.04 1016.59
1006.23 1006.74 1007.34 1007.80 1008.31 1008.71 1008.95 1009.10 1009.10 1009.16 1009.36 1009.42 1009.52 1009.78 1010.26 1010.91 1011.22 1011.53 1011.73 1011.78 1012.03 1012.19 1012.12 1012.08 1011.85 1011.67 1011.71 1011.79 1011.83 1011.88 1012.01 1012.13 1012.36 1012.63 1013.01 1013.41 1013.90 1014.32 1014.64 1014.98 1015.42 1016.02 1016.53
Wind_Speed
15 15 15 15 15 15 15 15 14 14 14 14 15 14 14 15 13 13 13 10 14 11 10 15 17 10 8 9 9 10 11 9 10 3 4 8 12 12 10 8 12 9 12
15 15 15 15 14 14 15 14 13 14 13 14 14 13 13 11 10 10 10 9 13 10 11 9 10 9 10 7 5 6 9 3 4 12 6 7 11 11 12 13 8 7 9
15 16 15 14 14 14 14 13 12 11 12 13 13 12 12 12 11 9 9 11 12 12 10 11 10 13 10 7 7 7 6 5 5 7 5 3 6 9 13 9 9 7 5
16 15 14 14 14 13 13 12 11 8 8 9 11 12 12 12 10 11 12 11 12 8 8 10 10 13 13 12 10 11 10 9 9 9 8 8 6 8 8 9 8 3 6
14 14 13 13 12 12 11 11 10 8 6 4 3 6 10 9 9 12 12 11 10 9 9 11 10 12 15 14 10 10 11 7 8 9 8 7 7 11 12 6 7 7 3
13 13 13 12 12 12 12 11 11 11 10 7 6 4 3 1 9 14 12 9 11 13 12 12 12 15 16 16 16 14 11 14 10 7 4 10 10 11 8 9 10 5 4
11 12 12 12 11 12 12 12 13 13 12 13 12 10 10 9 18 16 14 10 11 12 13 14 11 10 17 15 21 20 15 12 7 6 14 10 14 10 13 12 10 5 3
10 11 12 12 11 12 12 13 13 12 15 14 14 13 12 12 24 24 22 14 14 14 13 13 14 14 16 17 15 15 11 8 7 7 9 11 10 12 11 9 10 8 7
10 11 11 10 10 11 13 13 11 12 14 14 14 15 14 14 23 26 20 12 16 15 14 10 10 16 24 25 16 15 13 10 15 20 19 19 21 22 17 12 7 8 3
9 9 10 9 9 10 11 12 11 9 12 11 15 15 17 17 27 26 20 11 15 11 13 13 20 20 22 19 14 13 16 11 12 14 13 16 14 15 16 5 9 5 4
6 7 8 9 7 9 9 10 10 11 12 14 16 16 17 17 21 27 24 11 9 10 10 9 10 25 20 19 15 10 13 13 18 13 11 9 8 7 6 6 5 5 4
5 5 6 7 7 7 9 9 10 11 13 13 13 12 11 13 23 25 24 21 16 12 12 10 12 22 21 22 17 23 24 16 9 9 9 7 7 6 5 6 6 6 4
4 5 5 6 7 8 9 9 7 9 8 8 9 9 9 8 8 23 22 23 21 14 10 18 23 24 23 20 22 18 12 8 8 9 7 3 2 4 5 5 5 6 7
4 5 5 5 5 6 5 5 6 6 6 6 6 6 5 6 7 7 7 7 15 13 14 8 16 19 22 14 7 8 5 4 5 7 3 3 2 3 3 2 2 1 3
2 3 4 3 4 4 3 3 3 2 3 4 2 2 4 5 4 8 8 6 6 9 8 5 5 6 6 5 4 4 5 4 5 3 3 3 3 3 2 1 2 1 3
1 1 2 2 2 2 2 3 11 11 11 11 10 6 0 10 12 13 13 15 14 10 6 3 3 3 4 2 3 3 3 4 3 3 3 2 3 3 3 1 2 2 3
5 4 2 1 1 1 3 3 3 5 11 11 10 9 9 9 9 8 9 10 9 5 3 1 3 3 2 2 2 2 3 2 3 3 3 3 3 2 3 2 1 2 2
5 7 5 5 4 2 1 1 2 2 2 4 8 8 6 4 5 5 5 7 3 6 3 2 1 2 2 3 3 3 2 2 1 2 2 3 3 3 3 3 4 4 3
4 3 2 1 1 2 2 2 3 2 1 1 2 4 6 6 2 3 7 3 3 1 1 1 2 3 3 3 3 2 3 4 4 3 4 5 5 4 4 4 4 6 4
4 4 3 3 2 1 0 0 1 1 1 0 1 2 3 3 2 2 1 2 2 3 3 3 4 3 4 4 4 4 4 3 4 4 4 4 5 6 5 6 6 4 6
5 5 7 4 4 4 3 4 3 3 3 3 3 4 6 3 3 3 2 2 3 3 4 4 4 4 5 5 4 4 5 4 5 5 5 5 6 6 6 6 6 7 5
6 5 4 5 3 3 3 4 4 3 3 4 3 2 8 4 4 4 4 4 4 4 3 3 3 4 4 5 5 5 5 6 6 6 6 6 7 7 6 6 6 6 6
5 5 4 3 3 3 3 3 3 4 5 5 5 4 3 4 4 4 3 3 1 2 2 3 3 3 3 4 4 5 5 6 6 6 6 6 6 6 6 6 5 6 6
7 7 7 6 5 5 4 4 5 7 6 6 5 5 4 4 4 3 2 0 1 2 2 3 3 4 3 3 3 4 4 3 3 4 6 5 5 6 5 5 6 7 6
7 7 7 6 6 6 5 6 6 6 5 5 5 4 3 2 2 2 1 1 2 2 3 3 3 4 5 5 5 5 5 5 4 5 3 4 5 7 6 5 6 5 4
6 7 5 4 5 5 5 5 5 5 5 5 3 2 3 3 2 1 1 1 1 2 3 2 2 2 1 1 1 2 3 4 4 6 4 4 4 4 4 5 7 4 4
Wind_Direction
312 307 302 300 298 293 286 289 259 250 241 242 241 242 242 245 236 232 232 232 247 218 211 198 204 174 177 195 202 185 188 181 184 131 122 158 152 157 150 137 139 142 145
315 308 308 306 307 299 295 289 284 253 236 235 237 231 237 241 243 249 237 235 241 236 189 174 167 155 153 160 170 197 211 161 124 151 143 155 165 159 148 136 134 133 134
315 320 313 315 315 309 305 303 295 274 250 233 226 224 230 235 223 232 254 234 241 244 189 188 163 153 149 143 134 122 107 89 84 121 108 109 121 141 130 120 117 106 102
326 322 320 324 324 321 315 315 313 304 272 242 228 222 220 222 218 224 228 234 231 198 162 150 150 157 150 146 138 137 129 127 123 127 124 132 131 146 132 137 127 130 122
325 324 323 327 328 330 333 330 330 335 337 324 279 235 228 222 221 219 213 181 154 126 118 122 122 122 131 145 143 141 135 129 134 133 131 139 136 151 163 159 129 124 89
330 325 328 334 340 341 339 347 2 4 6 13 24 25 26 132 198 179 149 140 129 122 113 103 108 112 123 118 122 136 144 144 136 131 138 152 153 155 141 146 135 136 151
332 332 336 339 344 349 354 0 13 19 21 24 30 37 50 62 84 91 102 100 105 106 114 110 105 105 99 107 101 101 98 113 136 141 151 156 154 153 143 139 147 130 121
341 343 342 347 350 358 6 13 12 27 34 32 32 36 51 67 85 88 83 85 85 84 82 96 109 123 110 103 98 83 79 81 105 117 128 133 135 140 144 138 128 98 74
351 351 343 348 355 4 14 13 16 29 39 39 37 39 45 49 60 72 74 73 77 72 76 84 107 100 107 111 106 109 96 94 102 107 114 122 135 136 129 123 126 125 86
341 346 342 342 4 10 17 16 21 29 43 42 46 44 48 51 54 66 71 63 73 76 75 72 85 92 100 106 110 118 104 104 104 98 99 104 108 127 128 105 144 129 117
320 324 353 346 1 12 20 21 21 36 43 47 47 35 42 49 54 60 65 69 74 76 77 69 69 87 99 98 92 96 105 109 98 90 87 80 70 66 64 70 59 112 124
333 350 351 349 5 6 21 27 31 38 47 45 48 48 39 40 59 63 69 74 82 81 74 75 87 95 96 98 94 106 107 98 94 93 91 81 85 87 69 65 67 71 51
3 6 4 1 20 20 27 26 35 36 43 45 48 52 45 32 48 75 79 80 76 78 83 92 94 96 94 88 93 100 86 90 103 103 110 112 90 100 100 67 43 59 61
15 8 6 24 14 27 38 35 44 38 41 40 53 59 55 49 45 33 43 55 65 74 85 85 97 90 76 70 67 69 81 81 95 109 100 86 119 69 72 73 98 64 78
18 355 18 21 14 11 22 65 69 112 95 95 43 45 56 45 52 89 91 77 74 87 71 39 42 48 79 77 65 72 66 76 92 103 129 115 103 117 113 77 93 77 106
239 344 351 354 349 13 47 26 64 75 74 69 84 104 273 85 85 97 104 107 104 88 50 61 59 64 102 125 113 66 47 69 66 85 86 116 139 132 127 80 89 124 146
193 204 223 215 282 346 4 25 36 5 39 53 65 80 86 84 73 84 100 106 91 74 105 125 131 125 127 121 128 120 146 174 144 121 120 145 132 124 130 146 148 139 198
210 203 190 189 179 166 130 51 23 21 4 339 12 27 32 71 84 99 112 61 54 23 66 96 158 170 166 169 169 170 164 132 143 139 135 149 169 145 153 189 195 183 179
207 228 204 211 206 179 160 158 154 136 110 351 340 3 14 19 9 181 148 120 151 195 162 188 192 181 197 188 188 182 170 183 180 165 195 183 182 166 207 201 191 196 161
211 230 183 165 163 162 147 126 30 14 20 232 276 255 312 43 30 315 44 131 167 208 190 200 207 205 202 197 193 188 189 185 194 198 204 189 188 190 207 197 196 183 199
196 188 184 179 188 188 184 186 188 186 212 223 236 227 213 188 227 221 243 229 215 220 216 209 205 206 202 197 193 191 199 205 194 203 201 201 191 203 206 206 200 202 182
191 196 181 208 173 187 188 186 190 196 211 233 246 236 235 210 214 223 223 231 231 222 217 204 218 218 207 201 200 198 207 214 205 204 206 204 200 203 197 200 198 193 188
172 168 180 194 179 170 190 191 201 215 225 227 227 227 203 212 215 220 218 193 189 240 225 209 216 226 216 204 191 197 203 209 210 195 197 195 196 192 186 188 186 183 185
179 192 198 202 188 199 195 201 214 220 227 235 231 225 217 209 202 204 197 240 313 275 249 237 224 224 228 228 209 199 208 213 189 197 191 185 181 175 174 179 182 185 183
177 191 196 200 193 197 203 216 220 224 226 229 234 228 218 188 121 121 116 305 294 297 289 282 244 236 239 235 230 215 214 238 188 174 167 161 166 170 171 172 170 163 152
181 190 195 177 187 194 202 214 215 206 222 229 215 115 81 67 53 17 337 334 309 291 283 262 260 248 233 108 88 262 237 216 195 176 148 147 156 161 161 159 163 150 143